| time (UTC) | temp F | wind direction | speed knots | gust knots | rain 1hr in | rain 24hr in | rain mn in | humidity % | barometer mb |
| 20260505152538 | 74 | 242 | 4.3 | 6.1 | 0.00 | 0.00 | 0.00 | 52 | 1012.3 |
| 20260505151238 | 74 | 242 | 4.3 | 8.7 | 0.00 | 0.00 | 0.00 | 53 | 1012.5 |
| 20260505130238 | 64 | 237 | 3.5 | 8.7 | 0.00 | 0.00 | 0.00 | 66 | 1013.3 |
| 20260505124938 | 63 | 263 | 2.6 | 7.0 | 0.00 | 0.00 | 0.00 | 67 | 1013.4 |
| 20260505123638 | 62 | 189 | 2.6 | 8.7 | 0.00 | 0.00 | 0.00 | 68 | 1013.3 |
| 20260505122338 | 62 | 264 | 1.7 | 3.5 | 0.00 | 0.00 | 0.00 | 70 | 1013.4 |
| 20260505121038 | 61 | 69 | 0.9 | 2.6 | 0.00 | 0.00 | 0.00 | 75 | 1013.2 |
| 20260505115739 | 59 | 302 | 0.9 | 2.6 | 0.00 | 0.00 | 0.00 | 74 | 1013.0 |
| 20260505114439 | 59 | 291 | 0.9 | 2.6 | 0.00 | 0.00 | 0.00 | 76 | 1012.7 |
| 20260505113139 | 57 | 267 | 0.9 | 4.3 | 0.00 | 0.00 | 0.00 | 78 | 1012.7 |
| 20260505111839 | 56 | 136 | 0.9 | 2.6 | 0.00 | 0.00 | 0.00 | 81 | 1012.7 |
| 20260505110539 | 56 | 84 | 0.9 | 1.7 | 0.00 | 0.00 | 0.00 | 80 | 1012.7 |
| 20260505101339 | 57 | 98 | 0.9 | 5.2 | 0.00 | 0.00 | 0.00 | 76 | 1012.0 |
| 20260505100039 | 58 | 205 | 0.9 | 3.5 | 0.00 | 0.00 | 0.00 | 74 | 1011.9 |
| 20260505094739 | 59 | 198 | 1.7 | 7.0 | 0.00 | 0.00 | 0.00 | 73 | 1011.7 |
| 20260505093439 | 59 | 176 | 2.6 | 4.3 | 0.00 | 0.00 | 0.00 | 72 | 1011.7 |
| 20260505092139 | 59 | 201 | 3.5 | 6.1 | 0.00 | 0.00 | 0.00 | 71 | 1011.7 |
| 20260505090839 | 60 | 200 | 4.3 | 7.0 | 0.00 | 0.00 | 0.00 | 71 | 1011.7 |
| 20260505085539 | 60 | 196 | 4.3 | 7.0 | 0.00 | 0.00 | 0.00 | 71 | 1011.7 |
| 20260505084239 | 60 | 196 | 4.3 | 7.0 | 0.00 | 0.00 | 0.00 | 71 | 1011.7 |
| 20260505082939 | 60 | 183 | 3.5 | 7.0 | 0.00 | 0.00 | 0.00 | 70 | 1011.6 |
| 20260505081639 | 60 | 200 | 3.5 | 5.2 | 0.00 | 0.00 | 0.00 | 70 | 1011.7 |
| 20260505080339 | 60 | 199 | 2.6 | 5.2 | 0.00 | 0.00 | 0.00 | 71 | 1011.6 |
| 20260505075039 | 60 | 186 | 2.6 | 4.3 | 0.00 | 0.00 | 0.00 | 71 | 1011.7 |
| 20260505073812 | 60 | 185 | 2.6 | 3.5 | 0.00 | 0.00 | 0.00 | 71 | 1011.7 |
| 20260505073739 | 60 | 185 | 2.6 | 3.5 | 0.00 | 0.00 | 0.00 | 71 | 1011.7 |
| 20260505072439 | 60 | 180 | 2.6 | 4.3 | 0.00 | 0.00 | 0.00 | 70 | 1011.6 |
| 20260505071139 | 60 | 190 | 2.6 | 3.5 | 0.00 | 0.00 | 0.00 | 69 | 1011.6 |
| 20260505065839 | 60 | 175 | 2.6 | 4.3 | 0.00 | 0.00 | 0.00 | 69 | 1011.7 |
| 20260505064539 | 61 | 165 | 2.6 | 4.3 | 0.00 | 0.00 | 0.00 | 68 | 1011.7 |
| 20260505063239 | 61 | 194 | 2.6 | 5.2 | 0.00 | 0.00 | 0.00 | 68 | 1011.8 |
| 20260505061939 | 61 | 194 | 3.5 | 5.2 | 0.00 | 0.00 | 0.00 | 68 | 1011.9 |
| 20260505060639 | 61 | 195 | 3.5 | 5.2 | 0.00 | 0.00 | 0.00 | 67 | 1011.7 |
| 20260505055339 | 61 | 198 | 3.5 | 7.0 | 0.00 | 0.00 | 0.00 | 66 | 1012.0 |
| 20260505054039 | 60 | 194 | 3.5 | 6.1 | 0.00 | 0.00 | 0.00 | 66 | 1011.7 |
| 20260505052739 | 61 | 188 | 3.5 | 5.2 | 0.00 | 0.00 | 0.00 | 65 | 1011.8 |
| 20260505051439 | 61 | 198 | 4.3 | 5.2 | 0.00 | 0.00 | 0.00 | 64 | 1011.8 |
| 20260505050139 | 61 | 185 | 3.5 | 7.0 | 0.00 | 0.00 | 0.00 | 64 | 1011.9 |
| 20260505040939 | 61 | 190 | 3.5 | 4.3 | 0.00 | 0.00 | 0.00 | 61 | 1011.8 |
| 20260505035639 | 61 | 190 | 3.5 | 5.2 | 0.00 | 0.00 | 0.00 | 60 | 1011.8 |
| 20260505034339 | 62 | 196 | 2.6 | 4.3 | 0.00 | 0.00 | 0.00 | 59 | 1011.7 |
| 20260505033039 | 62 | 190 | 2.6 | 3.5 | 0.00 | 0.00 | 0.00 | 58 | 1011.6 |
| 20260505031739 | 62 | 196 | 2.6 | 4.3 | 0.00 | 0.00 | 0.00 | 58 | 1011.8 |
| 20260505030439 | 62 | 191 | 2.6 | 5.2 | 0.00 | 0.00 | 0.00 | 58 | 1011.9 |
| 20260505025139 | 62 | 192 | 2.6 | 3.5 | 0.00 | 0.00 | 0.00 | 58 | 1012.0 |
| 20260505023839 | 62 | 192 | 2.6 | 4.3 | 0.00 | 0.00 | 0.00 | 57 | 1012.0 |
| 20260505022539 | 62 | 191 | 1.7 | 4.3 | 0.00 | 0.00 | 0.00 | 57 | 1012.0 |
| 20260505021239 | 62 | 191 | 1.7 | 3.5 | 0.00 | 0.00 | 0.00 | 56 | 1012.0 |
| 20260505020011 | 63 | 190 | 1.7 | 3.5 | 0.00 | 0.00 | 0.00 | 56 | 1012.3 |
| 20260505015939 | 63 | 190 | 1.7 | 3.5 | 0.00 | 0.00 | 0.00 | 56 | 1012.3 |
| 20260505014639 | 63 | 190 | 1.7 | 3.5 | 0.00 | 0.00 | 0.00 | 55 | 1012.2 |
| 20260505013339 | 63 | 188 | 1.7 | 3.5 | 0.00 | 0.00 | 0.00 | 54 | 1012.2 |
| 20260505012039 | 63 | 213 | 1.7 | 3.5 | 0.00 | 0.00 | 0.00 | 53 | 1012.0 |
| 20260505010740 | 63 | 243 | 0.9 | 2.6 | 0.00 | 0.00 | 0.00 | 53 | 1011.8 |
| 20260505005439 | 63 | 239 | 1.7 | 2.6 | 0.00 | 0.00 | 0.00 | 53 | 1011.8 |
| 20260505004140 | 63 | 258 | 1.7 | 3.5 | 0.00 | 0.00 | 0.00 | 54 | 1011.8 |
| 20260505002840 | 63 | 214 | 0.9 | 2.6 | 0.00 | 0.00 | 0.00 | 53 | 1011.6 |
| 20260505001540 | 64 | 263 | 0.9 | 1.7 | 0.00 | 0.00 | 0.00 | 53 | 1011.5 |
| 20260505000240 | 65 | 264 | 0.9 | 2.6 | 0.00 | 0.00 | 0.00 | 52 | 1011.5 |
| 20260504234940 | 65 | 197 | 1.7 | 3.5 | 0.00 | 0.00 | 0.00 | 50 | 1011.4 |
| 20260504233640 | 66 | 196 | 1.7 | 3.5 | 0.00 | 0.00 | 0.00 | 50 | 1011.3 |
| 20260504232340 | 67 | 248 | 1.7 | 5.2 | 0.00 | 0.00 | 0.00 | 50 | 1011.3 |
| 20260504231040 | 67 | 196 | 1.7 | 3.5 | 0.00 | 0.00 | 0.00 | 48 | 1011.4 |
| 20260504225740 | 68 | 244 | 1.7 | 2.6 | 0.00 | 0.00 | 0.00 | 47 | 1011.4 |
| 20260504224440 | 68 | 236 | 1.7 | 3.5 | 0.00 | 0.00 | 0.00 | 47 | 1011.3 |
| 20260504223140 | 69 | 200 | 1.7 | 3.5 | 0.00 | 0.00 | 0.00 | 45 | 1011.4 |
| 20260504221840 | 69 | 213 | 3.5 | 7.8 | 0.00 | 0.00 | 0.00 | 46 | 1011.4 |
| 20260504220540 | 69 | 163 | 2.6 | 6.1 | 0.00 | 0.00 | 0.00 | 45 | 1011.5 |
| 20260504215240 | 69 | 190 | 2.6 | 6.1 | 0.00 | 0.00 | 0.00 | 44 | 1011.5 |
| 20260504213940 | 69 | 180 | 2.6 | 5.2 | 0.00 | 0.00 | 0.00 | 45 | 1011.6 |
| 20260504212640 | 70 | 275 | 0.9 | 3.5 | 0.00 | 0.00 | 0.00 | 44 | 1011.5 |
| 20260504211340 | 70 | 197 | 0.9 | 6.1 | 0.00 | 0.00 | 0.00 | 44 | 1011.6 |
| 20260504210040 | 70 | 194 | 2.6 | 5.2 | 0.00 | 0.00 | 0.00 | 44 | 1011.4 |
| 20260504204740 | 70 | 268 | 2.6 | 6.1 | 0.00 | 0.00 | 0.00 | 45 | 1011.5 |
| 20260504203440 | 70 | 264 | 3.5 | 10.4 | 0.00 | 0.00 | 0.00 | 46 | 1011.5 |
| 20260504202140 | 71 | 197 | 3.5 | 7.0 | 0.00 | 0.00 | 0.00 | 43 | 1011.6 |
| 20260504200840 | 71 | 264 | 2.6 | 7.8 | 0.00 | 0.00 | 0.00 | 45 | 1011.9 |
| 20260504195540 | 70 | 267 | 4.3 | 10.4 | 0.00 | 0.00 | 0.00 | 43 | 1012.0 |
| 20260504194240 | 70 | 227 | 4.3 | 9.6 | 0.00 | 0.00 | 0.00 | 43 | 1012.0 |
| 20260504192940 | 70 | 254 | 2.6 | 4.3 | 0.00 | 0.00 | 0.00 | 45 | 1012.3 |
| 20260504191640 | 70 | 196 | 4.3 | 9.6 | 0.00 | 0.00 | 0.00 | 43 | 1012.5 |
| 20260504190340 | 69 | 242 | 4.3 | 9.6 | 0.00 | 0.00 | 0.00 | 44 | 1012.6 |
| 20260504185040 | 69 | 239 | 4.3 | 11.3 | 0.00 | 0.00 | 0.00 | 43 | 1012.7 |
| 20260504183740 | 69 | 208 | 2.6 | 6.1 | 0.00 | 0.00 | 0.00 | 47 | 1012.9 |
| 20260504182440 | 69 | 265 | 2.6 | 6.1 | 0.00 | 0.00 | 0.00 | 45 | 1013.0 |
| 20260504181140 | 68 | 250 | 2.6 | 6.1 | 0.00 | 0.00 | 0.00 | 45 | 1013.2 |
| 20260504175840 | 67 | 176 | 2.6 | 9.6 | 0.00 | 0.00 | 0.00 | 44 | 1013.4 |
| 20260504174540 | 67 | 206 | 3.5 | 6.1 | 0.00 | 0.00 | 0.00 | 45 | 1013.7 |
| 20260504173240 | 67 | 198 | 2.6 | 7.8 | 0.00 | 0.00 | 0.00 | 46 | 1014.0 |
| 20260504171940 | 66 | 281 | 3.5 | 7.0 | 0.00 | 0.00 | 0.00 | 47 | 1014.2 |
| 20260504170640 | 65 | 228 | 4.3 | 7.8 | 0.00 | 0.00 | 0.00 | 48 | 1014.2 |
| 20260504160140 | 63 | 245 | 1.7 | 7.0 | 0.00 | 0.00 | 0.00 | 49 | 1015.3 |